Powrót do katalogu

STARLINK-33865

AktywnyŁącznośćVLEO
NORAD 64247·PAYLOAD·🇺🇸 United States

Wystrzelony Jun 3, 2025 z Cape Canaveral Space Force Station

Loading…

Następne Przeloty (najbliższe 24 godziny)

TLE

ŚwieżeSource: CelesTrak SupGP

Epoka: Sep 15, 2026, 02:46 UTC

1 64247C 25119Q   26258.11576389  .00044899  00000+0  16261-2 0  2583
2 64247  43.0010 316.9787 0001403 265.8844  70.1083 15.27558677    12

Śledź STARLINK-33865 w czasie rzeczywistym z AllMySat

Download on the App Store